#timestamp,LO_Frequency,Hit 
1497607215.3,286047004.2,N
1497607235.1,286047001.4,N
1497607255.9,286047001.3,N
1497607275.7,286047003.4,N
1497607295.5,286047004.3,N
1497607315.3,286047000.4,N
1497607335.2,286047001.2,N
1497607355.0,286047002.1,N
1497607355.9,286047002.1,N
1497607375.7,286046999.7,N
1497607395.6,286046998.6,N
1497607415.4,286046999.1,N
1497607435.2,286046999.0,N
1497607455.1,286046999.9,N
1497607456.0,286046999.9,N
1497607475.8,286047000.4,N
1497607495.6,286047003.9,N
1497607515.5,286047000.3,N
1497607535.3,286047000.3,N
1497607555.1,286047002.7,N
1497607575.9,286047001.6,N
1497607595.7,286047002.1,N
1497607615.5,286047004.2,N
1497607635.3,286047001.8,N
1497607655.2,286047002.3,N
1497607675.9,286046998.2,N
1497607695.7,286047001.1,N
1497607715.6,286046999.6,N
1497607735.4,286046997.5,N
1497607755.2,286046997.3,N
1497607775.1,286046995.3,N
1497607776.0,286046995.3,N
1497607795.8,286046995.3,N
1497607815.6,286046998.0,N
1497607835.5,286046999.1,N
1497607855.3,286046998.0,N
1497607875.1,286046995.0,N
1497607895.8,286046994.9,N
1497607915.7,286046995.6,N
1497607935.5,286046996.8,N
1497607955.3,286046997.2,N
1497607975.2,286046999.2,N
1497607995.9,286046998.5,N
1497608015.7,286047000.3,N
1497608035.6,286046998.1,N
1497608055.4,286046996.7,N
1497608075.2,286046995.4,N
1497608095.1,286046993.4,N
1497608096.0,286046993.4,N
1497608115.8,286046996.3,N
1497608135.6,286046994.0,N
1497608155.5,286046993.3,N
1497608175.3,286046995.4,N
1497608195.1,286046998.7,N
1497608215.8,286046995.7,N
1497608235.7,286046996.3,N
1497608255.5,286046993.3,N
1497608275.3,286046995.8,N
1497608295.2,286046995.4,N
1497608315.9,286046995.0,N
1497608335.7,286046994.3,N
1497608355.6,286046994.6,N
1497608375.4,286046995.1,N
1497608395.2,286046996.2,N
1497608415.1,286046994.5,N
1497608416.0,286046994.5,N
1497608435.8,286046996.4,N
1497608455.6,286046993.9,N
1497608475.4,286046993.9,N
1497608495.3,286046994.4,N
1497608515.1,286046991.7,N
1497608535.8,286046994.9,N
1497608555.7,286046993.4,N
1497608575.5,286046993.8,N
1497608595.3,286046996.3,N
1497608615.2,286046995.4,N
1497608635.9,286046995.7,N
1497608655.7,286046995.9,N
1497608675.6,286046997.7,N
1497608695.4,286046995.3,N
1497608715.2,286046993.3,N
1497608735.0,286046994.8,N
1497608735.9,286046994.8,N
1497608755.8,286046992.5,N
1497608775.6,286046991.3,N
1497608795.4,286046989.5,N
1497608815.3,286046989.0,N
1497608835.1,286046988.7,N
1497608855.8,286046989.7,N
1497608875.7,286046989.4,N
1497608895.5,286046989.7,N
1497608915.3,286046989.4,N
1497608935.2,286046985.8,N
1497608955.9,286046987.0,N
1497608975.7,286046988.3,N
1497608995.6,286046984.0,N
1497609015.4,286046986.3,N
1497609035.2,286046984.1,N
1497609055.0,286046986.7,N
1497609055.9,286046986.7,N
1497609075.8,286046980.6,N
1497609095.6,286046979.2,N
1497609115.4,286046981.9,N
1497609135.3,286046981.4,N
1497609155.1,286046981.8,N
1497609175.8,286046983.2,N
1497609195.7,286046979.0,N
1497609215.5,286046980.4,N
1497609235.3,286046978.5,N
1497609255.2,286046978.3,N
1497609275.9,286046976.1,N
1497609295.7,286046979.9,N
1497609315.6,286046979.7,N
1497609335.4,286046985.2,N
1497609355.2,286046979.3,N
1497609375.0,286046979.2,N
1497609375.9,286046979.2,N
1497609395.8,286046979.5,N
1497609415.6,286046979.2,N
1497609435.4,286046979.6,N
1497609455.3,286046979.3,N
1497609475.1,286046979.0,N
1497609495.8,286046983.3,N
1497609515.7,286046980.8,N
1497609535.5,286046977.8,N
1497609555.3,286046979.9,N
1497609575.2,286046978.5,N
1497609595.9,286046975.7,N
1497609615.7,286046980.4,N
1497609635.6,286046976.5,N
1497609655.4,286046977.2,N
1497609675.2,286046975.6,N
1497609695.0,286046974.1,N
1497609695.9,286046974.1,N
1497609715.8,286046975.1,N
1497609735.6,286046974.4,N
1497609755.4,286046974.5,N
1497609775.3,286046974.9,N
1497609795.1,286046978.8,N
1497609815.8,286046976.7,N
1497609835.7,286046977.3,N
1497609855.5,286046979.9,N
1497609875.3,286046974.6,N
1497609895.2,286046969.3,N
1497609915.9,286046966.8,N
1497609935.7,286046965.6,N
1497609955.6,286046964.7,N
1497609975.4,286046966.1,N
1497609995.2,286046969.0,N
1497610015.0,286046970.6,N
1497610015.9,286046970.6,N
1497610035.8,286046969.3,N
1497610055.6,286046970.9,N
1497610075.4,286046970.6,N
1497610095.3,286046969.6,N
1497610115.1,286046966.9,N
1497610135.8,286046966.3,N
1497610155.7,286046967.3,N
1497610175.5,286046967.5,N
1497610195.3,286046967.4,N
1497610215.2,286046968.6,N
1497610235.9,286046969.9,N
1497610255.7,286046966.4,N
1497610275.6,286046965.3,N
1497610295.4,286046967.2,N
1497610315.2,286046970.0,N
1497610335.0,286046968.0,N
1497610335.9,286046968.0,N
1497610355.8,286046966.9,N
1497610375.6,286046967.5,N
1497610395.4,286046966.9,N
1497610415.3,286046968.9,N
1497610435.1,286046964.6,N
1497610455.8,286046966.4,N
1497610475.7,286046967.1,N
1497610495.5,286046967.0,N
1497610515.3,286046964.9,N
1497610535.2,286046965.6,N
1497610555.9,286046965.3,N
1497610575.7,286046964.5,N
1497610595.6,286046967.6,N
1497610615.4,286046963.5,N
1497610635.2,286046963.6,N
1497610655.0,286046964.0,N
1497610655.9,286046964.0,N
1497610675.8,286046966.0,N
1497610695.6,286046966.0,N
1497610715.4,286046963.6,N
1497610735.3,286046965.3,N
1497610755.1,286046964.7,N
1497610756.0,286046964.7,N
1497610775.8,286046962.9,N
1497610795.7,286046964.9,N
